Concordia, KS

9:41 AM CDT on May 25, 2017 (GMT -0500)
Blosser Municipal

Weather History for KCNK - February, 2013

Change the Weather History Date:

Thursday, February 21, 2013

  Actual Average Record
Temperature  
Mean Temperature 20 °F 34 °F  
Max Temperature 22 °F 45 °F 75 °F (2017)
Min Temperature 17 °F 24 °F -3 °F (1918)
Degree Days  
Heating Degree Days 45 30  
Month to date heating degree days 642 698  
Since 1 July heating degree days 3750 4002  
Cooling Degree Days 0 0  
Month to date cooling degree days 0 0  
Year to date cooling degree days 0 0  
Moisture  
Dew Point 16 °F    
Average Humidity 77    
Maximum Humidity 91    
Minimum Humidity 62    
Precipitation  
Precipitation 0.53 in 0.03 in 0.68 in (1913)
Month to date precipitation 0.58 0.56  
Year to date precipitation 1.27 1.14  
Snow  
Snow 6.00 in 0.10 in 7.40 in (1971)
Month to date snowfall 6.5 4.0  
Year to date snowfall 11.7 9.7  
Since 1 July snowfall 20.2 16.2  
Snow Depth 4.00 in    
Sea Level Pressure  
Sea Level Pressure 29.88 in    
Wind  
Wind Speed 12 mph (NE)    
Max Wind Speed 21 mph    
Max Gust Speed 26 mph    
Visibility 2 miles    
Events Fog , Snow    
T = Trace of Precipitation, MM = Missing Value Source: NWS Daily Summary

Daily Weather History Graph

Daily Weather History Graph

Search for Another Location

Airport or City:

Trip Planner

Search our weather history database for the weather conditions in past years. The results will help you decide how hot, cold, wet, or windy it might be!

Date:

Astronomy

Feb. 21, 2013 Rise Set
Actual Time 7:14 AM CST 6:14 PM CST
Civil Twilight 6:47 AM CST 6:41 PM CST
Nautical Twilight 6:15 AM CST 7:12 PM CST
Astronomical Twilight 5:44 AM CST 7:44 PM CST
Moon 2:31 PM CST (2/21) 4:19 AM CST (2/21)
Length of Visible Light 11h 54m
Length of Day
10h 59m
Waxing Gibbous, 84% of the Moon is Illuminated
Feb 21
Waxing Gibbous
Feb 25
Full
Mar 4
Last Quarter
Mar 11
New
Mar 19
First Quarter

Hourly Weather History & Observations

Time (CST) Temp. Windchill Dew Point Humidity Pressure Visibility Wind Dir Wind Speed Gust Speed Precip Events Conditions
1:55 AM 21.9 °F 9.2 °F 12.0 °F 66% 30.06 in 10.0 mi East 13.8 mph 25.3 mph N/A   Overcast
2:09 AM 21.2 °F 7.3 °F 12.2 °F 68% 30.02 in 10.0 mi East 16.1 mph - N/A   Overcast
2:33 AM 21.2 °F 8.3 °F 10.4 °F 63% 30.00 in 10.0 mi East 13.8 mph - N/A   Overcast
2:55 AM 21.9 °F 8.7 °F 10.0 °F 60% 30.06 in 10.0 mi East 15.0 mph - N/A   Overcast
3:43 AM 21.2 °F 7.3 °F 12.2 °F 68% 29.95 in 2.5 mi East 16.1 mph 24.2 mph 0.00 in Snow Light Snow
3:51 AM 21.2 °F 7.3 °F 12.2 °F 68% 29.96 in 4.0 mi East 16.1 mph 23.0 mph 0.00 in Snow Light Snow
3:55 AM 21.0 °F 6.6 °F 12.9 °F 71% 30.01 in 6.0 mi East 17.3 mph 25.3 mph 0.00 in Snow Light Snow
4:55 AM 21.9 °F 9.8 °F 12.0 °F 66% 30.01 in 4.0 mi East 12.7 mph 21.9 mph 0.00 in Snow Light Snow
5:06 AM 21.2 °F 7.3 °F 12.2 °F 68% 29.94 in 2.0 mi East 16.1 mph 25.3 mph 0.00 in Snow Light Snow
5:12 AM 21.2 °F 7.8 °F 12.2 °F 68% 29.94 in 1.8 mi East 15.0 mph 25.3 mph 0.00 in Snow Light Snow
5:19 AM 21.2 °F 7.8 °F 12.2 °F 68% 29.94 in 1.2 mi East 15.0 mph 23.0 mph 0.00 in Snow Light Snow
5:55 AM 19.9 °F 7.3 °F 16.0 °F 85% 30.00 in 0.8 mi East 12.7 mph - 0.00 in Snow Light Snow
6:36 AM 19.4 °F 6.6 °F 15.8 °F 86% 29.91 in 1.0 mi ENE 12.7 mph 23.0 mph 0.03 in Snow Light Snow
6:51 AM 19.4 °F 6.0 °F 15.8 °F 86% 29.93 in 0.8 mi ENE 13.8 mph - 0.04 in Snow Light Snow
6:55 AM 19.0 °F 6.8 °F 16.0 °F 88% 29.99 in 0.8 mi ENE 11.5 mph - 0.04 in Snow Light Snow
7:34 AM 19.4 °F 6.6 °F 15.8 °F 86% 29.91 in 0.2 mi ENE 12.7 mph - 0.02 in Fog , Snow Snow
7:55 AM 19.0 °F 4.0 °F 16.0 °F 88% 29.97 in 0.2 mi ENE 17.3 mph 21.9 mph 0.03 in Fog , Snow Light Snow
8:55 AM 19.0 °F 6.1 °F 16.0 °F 88% 29.96 in 0.2 mi ENE 12.7 mph - 0.05 in Fog , Snow Snow
9:15 AM 19.4 °F 5.5 °F 15.8 °F 86% 29.89 in 0.2 mi ENE 15.0 mph 21.9 mph 0.01 in Fog , Snow Snow
9:55 AM 19.0 °F 5.0 °F 16.0 °F 88% 29.94 in 0.2 mi NE 15.0 mph 20.7 mph 0.05 in Fog , Snow Snow
10:55 AM 19.0 °F 6.1 °F 15.1 °F 85% 29.94 in 0.2 mi NE 12.7 mph - 0.12 in Fog , Snow Snow
11:55 AM 19.0 °F 5.6 °F 16.0 °F 88% 29.92 in 0.5 mi NE 13.8 mph - 0.05 in Fog , Snow Light Snow
11:58 AM 19.4 °F 6.6 °F 15.8 °F 86% 29.86 in 0.5 mi NE 12.7 mph - 0.00 in Fog , Snow Light Snow
12:13 PM 19.4 °F 6.0 °F 15.8 °F 86% 29.84 in 0.5 mi NE 13.8 mph 21.9 mph 0.00 in Fog , Snow Light Snow
12:47 PM 19.4 °F 3.6 °F 15.8 °F 86% 29.81 in 1.5 mi NE 19.6 mph - 0.01 in   Overcast
12:49 PM 19.4 °F 4.1 °F 15.8 °F 86% 29.81 in 2.0 mi NE 18.4 mph - 0.01 in   Overcast
12:55 PM 19.9 °F 6.7 °F 16.0 °F 85% 29.87 in 4.0 mi NE 13.8 mph 25.3 mph 0.01 in   Overcast
1:20 PM 19.4 °F 3.6 °F 15.8 °F 86% 29.80 in 2.5 mi NE 19.6 mph 26.5 mph 0.00 in Snow Light Snow
1:23 PM 19.4 °F 4.1 °F 15.8 °F 86% 29.80 in 1.5 mi ENE 18.4 mph 26.5 mph 0.00 in Snow Light Snow
1:27 PM 19.4 °F 4.5 °F 15.8 °F 86% 29.80 in 0.8 mi NE 17.3 mph 26.5 mph 0.00 in Snow Light Snow
1:55 PM 19.9 °F 5.7 °F 16.0 °F 85% 29.86 in 0.5 mi ENE 16.1 mph 21.9 mph 0.02 in Fog , Snow Light Snow
2:19 PM 19.4 °F 5.5 °F 17.6 °F 93% 29.79 in 0.2 mi ENE 15.0 mph 21.9 mph 0.01 in Fog , Snow Light Snow
2:26 PM 19.4 °F 5.0 °F 17.6 °F 93% 29.79 in 0.2 mi ENE 16.1 mph 23.0 mph 0.01 in Fog , Snow Light Snow
2:55 PM 21.0 °F 6.6 °F 16.0 °F 81% 29.83 in 0.2 mi ENE 17.3 mph - 0.02 in Snow Heavy Snow
3:19 PM 21.2 °F 7.3 °F 15.8 °F 80% 29.77 in 1.0 mi ENE 16.1 mph - 0.02 in Snow Light Snow
3:32 PM 21.2 °F 8.9 °F 15.8 °F 80% 29.77 in 0.5 mi NE 12.7 mph 21.9 mph 0.02 in Snow Snow
3:55 PM 21.0 °F 8.6 °F 17.1 °F 85% 29.83 in 0.5 mi ENE 12.7 mph - 0.03 in Fog , Snow Light Snow
4:10 PM 21.2 °F 8.9 °F 17.6 °F 86% 29.76 in 0.5 mi NE 12.7 mph - 0.00 in Fog , Snow Light Snow
4:37 PM 21.2 °F 8.9 °F 17.6 °F 86% 29.76 in 0.2 mi NE 12.7 mph - 0.02 in Fog , Snow Heavy Snow
4:55 PM 21.0 °F 10.6 °F 18.0 °F 88% 29.82 in 0.2 mi NE 9.2 mph - 0.04 in Fog , Snow Snow
5:10 PM 21.2 °F 10.1 °F 17.6 °F 86% 29.77 in 0.2 mi NE 10.4 mph - 0.01 in Fog , Snow Light Snow
5:28 PM 21.2 °F 13.6 °F 17.6 °F 86% 29.77 in 0.2 mi NNE 5.8 mph - 0.02 in Fog , Snow Snow
5:52 PM 21.2 °F 11.7 °F 17.6 °F 86% 29.79 in 0.5 mi NNE 8.1 mph - 0.03 in Fog , Snow Snow
5:55 PM 21.0 °F 11.4 °F 18.0 °F 88% 29.84 in 0.5 mi NNE 8.1 mph - 0.03 in Fog , Snow Light Snow
6:38 PM 21.2 °F 11.7 °F 17.6 °F 86% 29.79 in 1.0 mi NNE 8.1 mph - 0.02 in Snow Light Snow
6:55 PM 21.0 °F 11.4 °F 18.0 °F 88% 29.86 in 1.0 mi NNE 8.1 mph - 0.02 in Snow Light Snow
7:03 PM 21.2 °F 11.7 °F 17.6 °F 86% 29.79 in 0.8 mi NNE 8.1 mph - 0.01 in Snow Light Snow
7:07 PM 21.2 °F 10.9 °F 17.6 °F 86% 29.79 in 1.0 mi NNE 9.2 mph - 0.01 in Snow Light Snow
7:32 PM 19.4 °F 10.4 °F 17.6 °F 93% 29.80 in 1.5 mi NNE 6.9 mph - 0.01 in Snow Light Snow
7:40 PM 19.4 °F 10.4 °F 17.6 °F 93% 29.80 in 2.0 mi North 6.9 mph - 0.01 in Snow Light Snow
7:51 PM 19.4 °F 11.5 °F 17.6 °F 93% 29.80 in 4.0 mi North 5.8 mph - 0.01 in Snow Light Snow
7:55 PM 19.9 °F 11.1 °F 17.1 °F 89% 29.87 in 4.0 mi North 6.9 mph - 0.01 in Snow Light Snow
8:55 PM 19.9 °F 11.1 °F 17.1 °F 89% 29.88 in 4.0 mi NNW 6.9 mph - 0.00 in   Overcast
9:51 PM 19.4 °F 8.6 °F 15.8 °F 86% 29.82 in 5.0 mi NNW 9.2 mph - 0.00 in   Overcast
9:55 PM 19.9 °F 9.3 °F 16.0 °F 85% 29.88 in 5.0 mi NNW 9.2 mph - 0.00 in   Overcast
10:55 PM 19.0 °F 7.5 °F 16.0 °F 88% 29.89 in 6.0 mi NNW 10.4 mph - N/A   Overcast
11:51 PM 17.6 °F 5.7 °F 14.0 °F 86% 29.85 in 6.0 mi NW 10.4 mph - N/A   Mostly Cloudy
11:55 PM 17.1 °F 4.3 °F 14.0 °F 88% 29.92 in 6.0 mi NW 11.5 mph - N/A   Scattered Clouds